Shawbury, United Kingdom

10:37 PM GMT on January 16, 2017 (GMT +0000)
Shawbury Air Base

Weather History for EGOS - September, 2013

Change the Weather History Date:

Thursday, September 19, 2013

  Actual Average Record
Temperature  
Mean Temperature 56 °F -  
Max Temperature 66 °F 57 °F 66 °F (1998)
Min Temperature 47 °F 45 °F 39 °F (2000)
Degree Days  
Heating Degree Days 8    
Growing Degree Days 6 (Base 50)    
Moisture  
Dew Point 48 °F    
Average Humidity 76    
Maximum Humidity 94    
Minimum Humidity 43    
Precipitation  
Precipitation 0.03 in - - ()
Sea Level Pressure  
Sea Level Pressure 29.74 in    
Wind  
Wind Speed 9 mph ()    
Max Wind Speed 21 mph    
Max Gust Speed -    
Visibility 6.9 miles    
Events Rain    
Averages and records for this station are not official NWS values.
T = Trace of Precipitation, MM = Missing Value Source: Averaged Metar Reports

Daily Weather History Graph

Daily Weather History Graph

Search for Another Location

Airport or City:

Trip Planner

Search our weather history database for the weather conditions in past years. The results will help you decide how hot, cold, wet, or windy it might be!

Date:

Astronomy

Sep. 19, 2013 Rise Set
Actual Time 6:51 AM BST 7:16 PM BST
Civil Twilight 6:17 AM BST 7:50 PM BST
Nautical Twilight 5:35 AM BST 8:31 PM BST
Astronomical Twilight 4:52 AM BST 9:14 PM BST
Moon 6:56 PM BST (9/19) 6:49 AM BST (9/19)
Length of Visible Light 13h 33m
Length of Day
12h 24m
Full, 100% of the Moon is Illuminated
Sep 19
Full
Sep 19
Full
Sep 27
Last Quarter
Oct 5
New
Oct 12
First Quarter

Hourly Weather History & Observations

Time (BST) Temp. Dew Point Humidity Pressure Visibility Wind Dir Wind Speed Gust Speed Precip Events Conditions
12:50 AM 51 °F 44 °F 68% 29.88 in 17 mi WSW 6.9 mph - -   Mostly Cloudy
12:50 AM 50.0 °F 44.6 °F 82% 29.86 in 6.2 mi WSW 6.9 mph - N/A   Mostly Cloudy
1:50 AM 48.2 °F 42.8 °F 82% 29.86 in 6.2 mi WSW 8.1 mph - N/A   Mostly Cloudy
2:50 AM 50.0 °F 42.8 °F 76% 29.83 in 6.2 mi WSW 4.6 mph - N/A   Mostly Cloudy
3:50 AM 50.0 °F 44.6 °F 82% 29.83 in 6.2 mi SW 4.6 mph - N/A   Mostly Cloudy
4:50 AM 48.2 °F 44.6 °F 87% 29.83 in 6.2 mi SW 3.5 mph - N/A   Overcast
5:50 AM 50.0 °F 44.6 °F 82% 29.80 in 6.2 mi East 2.3 mph - N/A   Overcast
6:50 AM 49 °F 43 °F 74% 29.80 in 22 mi SSE 9.2 mph - -   Scattered Clouds
6:50 AM 50.0 °F 42.8 °F 76% 29.77 in 6.2 mi SSE 9.2 mph - N/A   Mostly Cloudy
7:50 AM 50.0 °F 44.6 °F 82% 29.77 in 6.2 mi South 11.5 mph - N/A   Mostly Cloudy
8:26 AM 50.0 °F 46.4 °F 87% 29.74 in 6.2 mi South 10.4 mph - N/A   Mostly Cloudy
8:50 AM 50.0 °F 46.4 °F 87% 29.71 in 6.2 mi SSE 11.5 mph - N/A   Mostly Cloudy
9:20 AM 51.8 °F 46.4 °F 82% 29.71 in 6.2 mi South 13.8 mph - N/A   Mostly Cloudy
9:35 AM 51.8 °F 46.4 °F 82% 29.68 in 3.7 mi South 12.7 mph - N/A Rain Light Rain
9:50 AM 51 °F 48 °F 86% 29.70 in 5 mi South 13.8 mph - - Rain Light Rain
9:50 AM 51.8 °F 48.2 °F 88% 29.68 in 5.0 mi South 13.8 mph - N/A Rain Light Rain
10:39 AM 53.6 °F 50.0 °F 88% 29.68 in 3.1 mi South 12.7 mph - N/A Rain Rain
10:50 AM 53.6 °F 51.8 °F 94% 29.68 in 4.3 mi SSW 11.5 mph - N/A Rain Light Rain
11:21 AM 55.4 °F 51.8 °F 88% 29.65 in 5.0 mi SSW 12.7 mph - N/A Rain Light Rain
11:50 AM 57.2 °F 55.4 °F 94% 29.65 in 6.2 mi SW 18.4 mph - N/A   Mostly Cloudy
12:03 PM 57.2 °F 55.4 °F 94% 29.65 in 4.3 mi SW 19.6 mph - N/A   Light Drizzle
12:50 PM 61 °F 57 °F 83% 29.65 in 16 mi SW 16.1 mph - - Rain Light Rain
12:50 PM 60.8 °F 57.2 °F 88% 29.65 in 6.2 mi SW 16.1 mph - N/A Rain Light Rain
1:14 PM 62.6 °F 57.2 °F 82% 29.65 in 6.2 mi SW 10.4 mph - N/A   Mostly Cloudy
1:50 PM 66.2 °F 53.6 °F 64% 29.65 in 6.2 mi West 20.7 mph - N/A   Scattered Clouds
2:50 PM 66.2 °F 51.8 °F 60% 29.65 in 6.2 mi WNW 16.1 mph - N/A   Scattered Clouds
3:50 PM 64 °F 47 °F 43% 29.70 in 22 mi WNW 19.6 mph - -   Partly Cloudy
3:50 PM 64.4 °F 46.4 °F 52% 29.68 in 6.2 mi WNW 19.6 mph - N/A   Partly Cloudy
4:50 PM 62.6 °F 46.4 °F 55% 29.71 in - West 13.8 mph - N/A   Clear
5:50 PM 60.8 °F 46.4 °F 59% 29.74 in 6.2 mi West 16.1 mph - N/A   Mostly Cloudy
6:50 PM 59 °F 47 °F 53% 29.76 in 14 mi West 10.4 mph - -   Scattered Clouds
6:50 PM 59.0 °F 46.4 °F 63% 29.74 in 6.2 mi West 10.4 mph - N/A   Partly Cloudy
7:50 PM 57.2 °F 46.4 °F 67% 29.77 in 6.2 mi SW 4.6 mph - N/A   Partly Cloudy
8:50 PM 57.2 °F 46.4 °F 67% 29.80 in 6.2 mi West 11.5 mph - N/A   Mostly Cloudy
9:50 PM 57 °F 48 °F 62% 29.84 in 16 mi West 10.4 mph - -   Overcast
9:50 PM 57.2 °F 48.2 °F 72% 29.83 in 6.2 mi West 10.4 mph - N/A   Overcast
10:50 PM 55.4 °F 48.2 °F 77% 29.86 in 6.2 mi WSW 5.8 mph - N/A   Mostly Cloudy
11:50 PM 55.4 °F 48.2 °F 77% 29.86 in 6.2 mi WNW 8.1 mph - N/A   Mostly Cloudy